[[{"header":{"parameterUnit":"m.s-1","parameterCategory":1,"la1":30.2992,"la2":30.254,"lo1":-89.0895,"lo2":-89.0443,"dy":0.0025,"dx":0.0025,"nx":19,"ny":19,"refTime":"2026-03-22T09:00:00:Z","depth":0,"parameterNumber":2,"parameterNumberName":"U-component_of_WINDS"},"data":[0,0,0,2.1156,2.1157,2.1253,2.1254,2.1366,2.1367,0,0,0,0,0,0,0,0,0,0,0,2.1118,2.1119,2.1155,2.1158,2.1253,2.1254,2.1366,2.1367,0,0,0,0,0,0,0,0,0,0,0,2.1118,2.1119,2.1119,2.1158,2.1253,2.1254,2.1366,2.1298,0,0,0,0,0,0,0,0,0,0,2.1207,2.1163,2.1119,2.1119,2.1158,2.1253,2.1254,2.1295,2.1302,2.1318,0,2.1327,0,2.1349,2.1374,2.1374,0,0,0,2.1165,2.1157,2.119,2.1119,2.1159,2.1253,2.1212,2.1299,2.1307,2.1327,2.1329,2.1333,2.1351,2.1374,2.1375,2.1437,2.1437,0,0,2.1159,2.1131,2.1185,2.1195,2.1177,2.1209,2.1215,2.1304,2.1305,2.1329,2.1336,2.1352,2.1375,2.1376,2.1437,2.1437,0,0,0,2.1139,2.1127,2.1159,2.119,2.1208,2.1212,2.1219,2.1301,2.1313,2.1338,2.1354,2.1376,2.1377,2.1437,2.1437,2.1407,0,0,0,2.1137,2.1116,2.1157,2.114,2.1206,2.1255,2.1213,2.1307,2.1318,2.1353,2.1376,2.1378,2.1437,2.1437,2.1408,2.1398,0,0,0,2.1115,2.1113,2.1124,2.1139,2.1179,2.1254,2.1272,2.131,2.1328,2.1374,2.1378,2.1437,2.1437,2.1409,2.1399,2.1406,0,0,0,2.1085,2.1096,2.1123,2.1143,2.1178,2.1235,2.1272,2.1316,2.1353,2.1376,2.1437,2.1437,2.1409,2.14,2.1407,2.1407,2.1404,0,0,2.1084,2.1095,2.1109,2.1136,2.1181,2.1222,2.1264,2.1325,2.1356,2.1409,2.1411,2.1408,2.1399,2.1406,2.1398,2.1395,0,0,0,2.11,2.1109,2.1127,2.116,2.1205,2.1245,2.1302,2.1325,2.1371,2.1376,2.1413,2.1409,2.1414,2.1416,2.1414,2.142,2.1436,2.1436,2.1436,2.1058,2.1096,2.1122,2.1172,2.1204,2.1263,2.1293,2.1335,2.1365,2.1373,2.1388,2.1379,2.1379,2.1377,2.1384,2.1392,2.1392,2.1392,2.1392,2.106,2.108,2.112,2.1159,2.1201,2.1236,2.1295,2.1315,2.1355,2.1369,2.1376,2.1388,2.1373,2.1381,2.139,2.139,2.139,2.1391,2.1391,2.1036,2.1052,2.108,2.1132,2.1168,2.122,2.1257,2.1294,2.1329,2.1336,2.1357,2.1358,2.1364,2.1344,2.1344,2.1344,2.1344,2.1344,2.1343,2.1,2.1032,2.1057,2.1108,2.1135,2.1175,2.1236,2.1265,2.1306,2.133,2.1331,2.136,2.1364,2.1365,2.1343,2.1343,2.1343,2.1343,2.1343,2.0988,2.0997,2.1035,2.1061,2.1126,2.116,2.1208,2.1263,2.1292,2.1309,2.1339,2.1335,2.135,2.1352,2.1352,2.1329,2.1329,2.1329,2.1329,2.0967,2.0978,2.1027,2.1067,2.1112,2.1159,2.1204,2.1253,2.1306,2.1327,2.1336,2.134,2.134,2.1355,2.1357,2.1358,2.1337,2.1337,2.1337,2.0962,2.0979,2.1008,2.1058,2.1112,2.1158,2.1202,2.1249,2.1311,2.1338,2.1345,2.1344,2.1351,2.1351,2.1376,2.1379,2.1381,0,0]},{"header":{"parameterUnit":"m.s-1","parameterCategory":1,"la1":30.2992,"la2":30.254,"lo1":-89.0895,"lo2":-89.0443,"dy":0.0025,"dx":0.0025,"nx":19,"ny":19,"refTime":"2026-03-22T09:00:00:Z","depth":0,"parameterNumber":3,"parameterNumberName":"V-component_of_WINDS"},"data":[0,0,0,2.9261,2.9262,2.9326,2.9326,2.9401,2.9401,0,0,0,0,0,0,0,0,0,0,0,2.9239,2.924,2.9261,2.9263,2.9326,2.9326,2.9401,2.9401,0,0,0,0,0,0,0,0,0,0,0,2.9239,2.924,2.924,2.9263,2.9326,2.9326,2.9401,2.9355,0,0,0,0,0,0,0,0,0,0,2.9294,2.9271,2.9239,2.924,2.9263,2.9326,2.9326,2.9353,2.9358,2.937,0,2.9381,0,2.9392,2.9406,2.9406,0,0,0,2.9264,2.9267,2.9287,2.924,2.9264,2.9325,2.9298,2.9355,2.9361,2.9376,2.9382,2.9385,2.9394,2.9407,2.9407,2.9477,2.9477,0,0,2.9261,2.9248,2.9283,2.9291,2.9282,2.9296,2.93,2.9359,2.9363,2.9382,2.9387,2.9395,2.9407,2.9408,2.9476,2.9477,0,0,0,2.925,2.9246,2.9265,2.9288,2.93,2.9297,2.9302,2.9361,2.9368,2.9387,2.9396,2.9407,2.9408,2.9476,2.9477,2.9479,0,0,0,2.9248,2.9239,2.9263,2.9256,2.9298,2.9331,2.9302,2.9364,2.9371,2.9395,2.9408,2.9409,2.9476,2.9476,2.9478,2.9481,0,0,0,2.9236,2.9238,2.9246,2.9255,2.9282,2.933,2.9341,2.9366,2.9376,2.9406,2.9409,2.9476,2.9476,2.9477,2.948,2.9498,0,0,0,2.922,2.9244,2.9246,2.9277,2.9282,2.9331,2.9341,2.9378,2.9404,2.9408,2.9476,2.9477,2.9477,2.948,2.9497,2.9511,2.9516,0,0,2.9244,2.9247,2.9266,2.927,2.9316,2.9323,2.937,2.9404,2.9416,2.9456,2.9458,2.9478,2.948,2.9498,2.9544,2.9547,0,0,0,2.927,2.9284,2.9299,2.9325,2.9353,2.9379,2.9408,2.9422,2.9456,2.9434,2.9489,2.9491,2.9502,2.9509,2.9512,2.9523,2.9479,2.9479,2.9479,2.9284,2.9303,2.9337,2.9365,2.939,2.9422,2.9444,2.9468,2.9475,2.9489,2.95,2.9526,2.9534,2.9537,2.9548,2.9508,2.9508,2.9508,2.9508,2.9322,2.9346,2.9361,2.94,2.942,2.9452,2.9485,2.9491,2.9524,2.9518,2.9528,2.9521,2.954,2.9551,2.9509,2.9509,2.9509,2.9509,2.9509,2.9334,2.9349,2.9368,2.941,2.9441,2.9467,2.95,2.9516,2.9531,2.9541,2.9557,2.9557,2.956,2.9548,2.9548,2.9548,2.9548,2.9548,2.9548,2.934,2.9361,2.9387,2.9424,2.9445,2.9475,2.951,2.9531,2.9558,2.9567,2.9567,2.9576,2.9538,2.9529,2.955,2.9549,2.9549,2.9549,2.9549,2.9372,2.9369,2.941,2.9431,2.9478,2.9509,2.953,2.9573,2.9592,2.9609,2.9616,2.9586,2.9589,2.9586,2.9579,2.9611,2.9611,2.9611,2.9611,2.9383,2.9387,2.9436,2.947,2.9505,2.953,2.9578,2.9607,2.9636,2.965,2.9648,2.964,2.9637,2.9642,2.9638,2.9632,2.9676,2.9676,2.9676,2.9404,2.9414,2.9451,2.9483,2.9521,2.9554,2.9601,2.964,2.9672,2.968,2.9662,2.9659,2.9646,2.964,2.9646,2.964,2.9629,0,0]}]]